Regional Weather Roundup
Issued by NWS

Home | Current Version | Previous Version | Graphics & Text | Print | Product List | Glossary Off
Versions: 1 2 3 4 5 6 7 8 9 10 11 12 13 14 15 16 17 18 19 20 21 22 23 24 25 26 27

000
ASUS45 KBOU 240107
RWRCO

WEATHER ROUNDUP FOR COLORADO
NATIONAL WEATHER SERVICE DENVER/BOULDER CO
700 PM MDT THU OCT 23 2014

NOTE: "FAIR" INDICATES FEW OR NO CLOUDS BELOW 12000 FEET WITH NO
SIGNIFICANT WEATHER AND/OR OBSTRUCTIONS TO VISIBILITY.

COZ001>005-013-030-031-240200-
...NORTHWEST COLORADO...

CITY           SKY/WX    TMP DP  RH WIND       PRES   REMARKS
CRAIG          CLEAR     56  33  42 SW5       30.19R
HAYDEN         CLEAR     57  28  33 SW7       30.21S
MEEKER         PTCLDY    55  36  48 VRB5      30.23R
MOUNT WERNER   NOT AVBL
STEAMBOAT SPGS CLEAR     56  32  39 CALM      30.24R
WALDEN         MOCLDY    50  28  43 SE7       30.28R
$$

COZ006>008-011-240200-
...WEST CENTRAL VALLEYS...

CITY           SKY/WX    TMP DP  RH WIND       PRES   REMARKS
GRAND JUNCTION CLEAR     61  38  42 CALM      30.18R
MONTROSE       CLEAR     61  38  42 S3        30.24R
EAGLE          CLEAR     55  37  50 NE5       30.28R
RIFLE          CLEAR     56  41  57 S7        30.21R
DELTA          CLEAR     65  37  35 NW3       30.20R
NUCLA          CLEAR     64  30  27 CALM      30.28S
$$

COZ017>023-064>068-240200-
...SOUTHWEST COLORADO...

CITY           SKY/WX    TMP DP  RH WIND       PRES   REMARKS
DURANGO        PTCLDY    58  36  43 SW6       30.30R
CORTEZ         CLEAR     54  34  46 NE5       30.27R
PAGOSA SPRINGS PTCLDY    52  39  61 CALM      30.36R
TELLURIDE      CLEAR     51  32  47 E6        30.45R
WOLF CREEK PAS CLEAR     36  30  80 SW16        N/A
$$

COZ009-010-012-014-032>034-037-058>063-240200-
...CENTRAL COLORADO...

CITY           SKY/WX    TMP DP  RH WIND       PRES   REMARKS
ASPEN          CLEAR     47  34  60 SW9       30.33R
BUENA VISTA    CLEAR     53  28  38 W12       30.32S
COPPER MTN     CLEAR     41  21  45 SW9G17    30.55R
BERTHOUD PASS  FAIR      34  32  93 W23G29    30.53R WCI  22
COTTONWOOD PAS CLEAR     50  27  40 N5        30.43S
GUNNISON       CLEAR     54  27  35 CALM      30.36R
KREMMLING      PTCLDY    52  27  37 W6          N/A
LEADVILLE      CLEAR     43  26  51 N6        30.43R
MONARCH PASS   CLEAR     37  27  65 W17G23    30.66R
SALIDA         CLEAR     60  28  29 SW12      30.37S
SUNLIGHT       CLEAR     41  30  65 CALM      30.50R
WILKERSON PASS NOT AVBL
$$

COZ069>075-240200-
...SAN LUIS VALLEY/SANGRE DE CRISTO MOUNTAINS...

CITY           SKY/WX    TMP DP  RH WIND       PRES   REMARKS
ALAMOSA        CLEAR     51  29  42 NE6       30.31R
LA VETA PASS   CLEAR     45  27  49 S7        30.45R
SAGUACHE       CLEAR     54  32  43 CALM      30.34R
$$

COZ035-036-038>040-240200-
...NORTHERN COLORADO FRONT RANGE...

CITY           SKY/WX    TMP DP  RH WIND       PRES   REMARKS
DENVER INTL AP MOCLDY    60  31  33 S14       30.12R
DMNS CITY PARK   N/A     62  33  33 S3        30.12R
AURORA         MOCLDY    59  33  37 SE12      30.15R
FRONT RANGE AP NOT AVBL
ERIE MUNI ARPT CLOUDY    61  32  33 S7        30.11R
BOULDER MUN AP CLOUDY    68  30  24 SW10      30.11R
CENTENNIAL     MOCLDY    59  34  39 S9        30.15R
BROOMFIELD     MOCLDY    63  32  31 SW7       30.14S
FORT COLLINS   MOCLDY    61  30  31 CALM      30.10R
LONGMONT       MOCLDY    61  35  37 S5        30.11R
$$

COZ041-046-047-076>085-087-088-240200-
...PIKES PEAK/PALMER DIVIDE AND SOUTHERN FOOTHILLS...

CITY           SKY/WX    TMP DP  RH WIND       PRES   REMARKS
COLO. SPRINGS  PTCLDY    60  29  30 S10       30.21R
A. F. ACADEMY  CLEAR     59  28  30 S6        30.22R
ELLICOTT       NOT AVBL
FALCON         CLEAR     53  29  40 SW8       30.24S
FORT CARSON    CLEAR     59  31  34 SW9       30.18R
LIMON          CLEAR     54  38  54 S5        30.15R
MONUMENT HILL  PTCLDY    46  32  57 S10       30.23S
TRINIDAD       CLEAR     63  32  31 SE5       30.19R
$$

COZ042>045-048>051-090-091-240200-
...NORTHEAST COLORADO...

CITY           SKY/WX    TMP DP  RH WIND       PRES   REMARKS
GREELEY ARPT   MOCLDY    59  36  41 E5        30.08R
AKRON          CLEAR     57  33  40 S7        30.08S
BURLINGTON     CLEAR     58  42  55 S10       30.10R
WRAY           PTCLDY    60  34  37 S3        30.05R
STERLING       CLEAR     59  37  44 SW6       30.03S
HOLYOKE        PTCLDY    55  36  47 SW5       30.04S
FORT MORGAN    CLEAR     63  27  26 CALM      30.07S
$$

COZ086-089-092>099-240200-
...SOUTHEAST COLORADO...

CITY           SKY/WX    TMP DP  RH WIND       PRES   REMARKS
PUEBLO         CLEAR     63  32  31 E7        30.12R
LA JUNTA       CLEAR     65  38  36 E6        30.10R
LAMAR          CLEAR     57  39  51 CALM      30.08R
SPRINGFIELD      N/A     58  49  72 S6        30.14R
$$



USA.gov is the U.S. government's official web portal to all federal, state and local government web resources and services.